• Em Portugal
  • Lista de países
  • Para 7 dias
  • Temperatura da água
  • Mapas de satélite
  • Mapa do tempo
  • Widgets de tempo
  • user-avatar
    Iniciar Sessão

    Previsão horária em Trypolis

    Hoje, 21 Fevereiro, Quarta-feira

    Tempo Temperatura Precipitação Vento Pressão Humidade
    00:00 +16°C° 0 mm 2 m/s 756 mmHg 64%
    01:00 +16°C° 0 mm 1 m/s 756 mmHg 64%
    02:00 +16°C° 0 mm 1 m/s 756 mmHg 64%
    03:00 +16°C° 0 mm 1 m/s 756 mmHg 65%
    04:00 +16°C° 0 mm 1 m/s 756 mmHg 66%
    05:00 +16°C° 0 mm 1 m/s 756 mmHg 66%
    06:00 +16°C° 0 mm 1 m/s 756 mmHg 64%
    07:00 +18°C° 0 mm 1 m/s 756 mmHg 62%
    08:00 +18°C° 0 mm 1 m/s 756 mmHg 59%
    09:00 +19°C° 0 mm 1 m/s 756 mmHg 56%
    10:00 +19°C° 0 mm 2 m/s 756 mmHg 53%
    11:00 +20°C° 0 mm 2 m/s 756 mmHg 50%
    12:00 +20°C° 0,1 mm 2 m/s 756 mmHg 52%
    13:00 +20°C° 0,1 mm 2 m/s 756 mmHg 54%
    14:00 +20°C° 0,1 mm 3 m/s 755 mmHg 56%
    15:00 +19°C° 0,2 mm 2 m/s 756 mmHg 59%
    16:00 +18°C° 0,2 mm 2 m/s 756 mmHg 62%
    17:00 +18°C° 0,2 mm 2 m/s 756 mmHg 65%
    18:00 +17°C° 0,1 mm 2 m/s 756 mmHg 67%
    19:00 +17°C° 0,1 mm 2 m/s 756 mmHg 69%
    20:00 +16°C° 0,1 mm 2 m/s 756 mmHg 71%
    21:00 +16°C° 0 mm 1 m/s 757 mmHg 69%
    22:00 +16°C° 0 mm 1 m/s 757 mmHg 67%
    23:00 +16°C° 0 mm 1 m/s 757 mmHg 64%

    Amanhã, 22 Fevereiro, Quinta-feira

    Tempo Temperatura Precipitação Vento Pressão Humidade
    00:00 +16°C° 0 mm 1 m/s 757 mmHg 64%
    01:00 +16°C° 0 mm 2 m/s 757 mmHg 64%
    02:00 +16°C° 0 mm 2 m/s 757 mmHg 64%
    03:00 +16°C° 0 mm 2 m/s 757 mmHg 65%
    04:00 +15°C° 0 mm 2 m/s 757 mmHg 65%
    05:00 +15°C° 0 mm 2 m/s 757 mmHg 66%
    06:00 +15°C° 0 mm 2 m/s 757 mmHg 66%
    07:00 +16°C° 0 mm 2 m/s 757 mmHg 66%
    08:00 +16°C° 0 mm 2 m/s 757 mmHg 66%
    09:00 +17°C° 0 mm 2 m/s 757 mmHg 62%
    10:00 +18°C° 0 mm 2 m/s 757 mmHg 57%
    11:00 +20°C° 0 mm 1 m/s 757 mmHg 53%
    12:00 +20°C° 0,1 mm 1 m/s 757 mmHg 53%
    13:00 +19°C° 0,1 mm 2 m/s 757 mmHg 53%
    14:00 +19°C° 0,1 mm 2 m/s 756 mmHg 53%
    15:00 +19°C° 0,1 mm 2 m/s 756 mmHg 56%
    16:00 +18°C° 0,1 mm 2 m/s 756 mmHg 59%
    17:00 +18°C° 0,1 mm 2 m/s 756 mmHg 62%
    18:00 +18°C° 0 mm 2 m/s 756 mmHg 65%
    19:00 +17°C° 0 mm 2 m/s 756 mmHg 67%
    20:00 +17°C° 0 mm 2 m/s 757 mmHg 70%
    21:00 +16°C° 0 mm 2 m/s 757 mmHg 71%
    22:00 +16°C° 0 mm 2 m/s 757 mmHg 72%
    23:00 +16°C° 0 mm 1 m/s 757 mmHg 73%

    Depois de amanhã, 23 Fevereiro, Sexta-feira

    Tempo Temperatura Precipitação Vento Pressão Humidade
    00:00 +16°C° 0 mm 1 m/s 757 mmHg 73%
    01:00 +15°C° 0 mm 1 m/s 757 mmHg 74%
    02:00 +15°C° 0 mm 1 m/s 757 mmHg 74%
    03:00 +15°C° 0 mm 1 m/s 756 mmHg 75%
    04:00 +14°C° 0 mm 2 m/s 756 mmHg 75%
    05:00 +14°C° 0 mm 2 m/s 756 mmHg 75%
    06:00 +15°C° 0 mm 2 m/s 756 mmHg 71%
    07:00 +16°C° 0 mm 2 m/s 756 mmHg 68%
    08:00 +17°C° 0 mm 2 m/s 757 mmHg 64%
    09:00 +18°C° 0 mm 2 m/s 757 mmHg 58%
    10:00 +19°C° 0 mm 2 m/s 756 mmHg 52%
    11:00 +19°C° 0 mm 2 m/s 756 mmHg 46%
    12:00 +20°C° 0 mm 2 m/s 756 mmHg 46%
    13:00 +20°C° 0 mm 2 m/s 755 mmHg 46%
    14:00 +20°C° 0 mm 3 m/s 755 mmHg 46%
    15:00 +19°C° 0 mm 2 m/s 755 mmHg 49%
    16:00 +18°C° 0 mm 2 m/s 755 mmHg 53%
    17:00 +19°C° 0 mm 1 m/s 755 mmHg 57%
    18:00 +18°C° 0 mm 1 m/s 755 mmHg 61%
    19:00 +16°C° 0 mm 1 m/s 756 mmHg 64%
    20:00 +16°C° 0 mm 1 m/s 756 mmHg 68%
    21:00 +16°C° 0 mm 1 m/s 756 mmHg 68%
    22:00 +15°C° 0 mm 1 m/s 756 mmHg 68%
    23:00 +15°C° 0 mm 1 m/s 756 mmHg 67%

    24 Fevereiro, Sábado

    Tempo Temperatura Precipitação Vento Pressão Humidade
    00:00 +15°C° 0 mm 1 m/s 756 mmHg 67%
    01:00 +14°C° 0 mm 1 m/s 756 mmHg 66%
    02:00 +14°C° 0 mm 1 m/s 756 mmHg 65%
    03:00 +14°C° 0 mm 1 m/s 756 mmHg 64%
    04:00 +14°C° 0 mm 1 m/s 756 mmHg 62%
    05:00 +13°C° 0 mm 1 m/s 756 mmHg 61%
    06:00 +14°C° 0 mm 1 m/s 757 mmHg 55%
    07:00 +15°C° 0 mm 1 m/s 757 mmHg 50%
    08:00 +18°C° 0 mm 1 m/s 757 mmHg 45%
    09:00 +19°C° 0 mm 1 m/s 757 mmHg 40%
    10:00 +20°C° 0 mm 1 m/s 757 mmHg 36%
    11:00 +21°C° 0 mm 1 m/s 757 mmHg 31%
    12:00 +20°C° 0 mm 2 m/s 757 mmHg 32%
    13:00 +20°C° 0 mm 2 m/s 756 mmHg 33%
    14:00 +20°C° 0 mm 2 m/s 756 mmHg 34%
    15:00 +19°C° 0 mm 2 m/s 756 mmHg 39%
    16:00 +18°C° 0 mm 2 m/s 756 mmHg 43%
    17:00 +19°C° 0 mm 1 m/s 756 mmHg 47%
    18:00 +18°C° 0 mm 1 m/s 756 mmHg 51%
    19:00 +16°C° 0 mm 1 m/s 756 mmHg 55%
    20:00 +16°C° 0 mm 1 m/s 757 mmHg 59%
    21:00 +15°C° 0 mm 1 m/s 757 mmHg 61%
    22:00 +15°C° 0 mm 1 m/s 757 mmHg 62%
    23:00 +15°C° 0 mm 2 m/s 757 mmHg 63%

    25 Fevereiro, Domingo

    Tempo Temperatura Precipitação Vento Pressão Humidade
    00:00 +15°C° 0 mm 2 m/s 757 mmHg 64%
    01:00 +14°C° 0 mm 2 m/s 757 mmHg 65%
    02:00 +14°C° 0 mm 2 m/s 757 mmHg 66%
    03:00 +14°C° 0 mm 2 m/s 757 mmHg 66%
    04:00 +14°C° 0 mm 2 m/s 757 mmHg 66%
    05:00 +13°C° 0 mm 3 m/s 758 mmHg 65%
    06:00 +14°C° 0 mm 3 m/s 758 mmHg 60%
    07:00 +16°C° 0 mm 3 m/s 758 mmHg 54%
    08:00 +17°C° 0 mm 3 m/s 758 mmHg 48%
    09:00 +18°C° 0 mm 3 m/s 758 mmHg 44%
    10:00 +19°C° 0 mm 4 m/s 757 mmHg 41%
    11:00 +20°C° 0 mm 4 m/s 757 mmHg 37%
    12:00 +20°C° 0 mm 5 m/s 757 mmHg 39%
    13:00 +20°C° 0 mm 5 m/s 756 mmHg 42%
    14:00 +20°C° 0 mm 5 m/s 755 mmHg 44%
    15:00 +20°C° 0 mm 5 m/s 755 mmHg 50%
    16:00 +19°C° 0 mm 5 m/s 756 mmHg 56%
    17:00 +17°C° 0 mm 5 m/s 756 mmHg 62%
    18:00 +18°C° 0 mm 4 m/s 756 mmHg 64%
    19:00 +17°C° 0 mm 4 m/s 756 mmHg 66%
    20:00 +17°C° 0 mm 3 m/s 756 mmHg 68%
    21:00 +17°C° 0,1 mm 3 m/s 756 mmHg 66%
    22:00 +16°C° 0,1 mm 3 m/s 755 mmHg 64%
    23:00 +16°C° 0,1 mm 3 m/s 755 mmHg 61%

    26 Fevereiro, Segunda-feira

    Tempo Temperatura Precipitação Vento Pressão Humidade
    00:00 +16°C° 0,2 mm 2 m/s 755 mmHg 60%
    01:00 +16°C° 0,2 mm 2 m/s 755 mmHg 59%
    02:00 +16°C° 0,2 mm 2 m/s 754 mmHg 58%
    03:00 +16°C° 0,2 mm 3 m/s 754 mmHg 61%
    04:00 +14°C° 0,2 mm 3 m/s 755 mmHg 63%
    05:00 +14°C° 0,2 mm 3 m/s 755 mmHg 65%
    06:00 +14°C° 0,1 mm 3 m/s 755 mmHg 65%
    07:00 +16°C° 0,1 mm 3 m/s 755 mmHg 64%
    08:00 +16°C° 0,1 mm 3 m/s 755 mmHg 63%
    09:00 +17°C° 0 mm 3 m/s 755 mmHg 59%
    10:00 +18°C° 0 mm 3 m/s 755 mmHg 54%
    11:00 +19°C° 0 mm 3 m/s 755 mmHg 50%
    12:00 +19°C° 0 mm 4 m/s 754 mmHg 50%
    13:00 +19°C° 0 mm 4 m/s 754 mmHg 51%
    14:00 +19°C° 0 mm 4 m/s 754 mmHg 51%
    15:00 +19°C° 0 mm 4 m/s 754 mmHg 54%
    16:00 +18°C° 0 mm 4 m/s 754 mmHg 58%
    17:00 +18°C° 0 mm 3 m/s 754 mmHg 62%
    18:00 +17°C° 0 mm 3 m/s 754 mmHg 65%
    19:00 +17°C° 0 mm 2 m/s 754 mmHg 68%
    20:00 +16°C° 0 mm 2 m/s 754 mmHg 71%
    21:00 +16°C° 0 mm 2 m/s 754 mmHg 69%
    22:00 +16°C° 0 mm 2 m/s 754 mmHg 68%
    23:00 +16°C° 0 mm 3 m/s 754 mmHg 67%
    Mostrar mais